When you browse on this site, cookies collect data to enhance your experience and personalize the content and advertising you see.
Visit our Privacy Policy to learn more. By continuing to use the site, you agree to this use of cookies and data.
  • In France
  • List of Countries
  • For 7 days
  • Water Temperature
  • Satellite Maps
  • Weather Map
  • Weather Widgets
  • user-avatar
    Login

    Hourly Weather Horta

    Today, 12 December, Wednesday

    Time Temperature Precipitation Wind Pressure Humidity
    00:00 -4°C° 0 mm 3 mps 584 mmHg 75%
    01:00 -5°C° 0 mm 3 mps 584 mmHg 76%
    02:00 -5°C° 0 mm 3 mps 584 mmHg 77%
    03:00 -5°C° 0 mm 3 mps 584 mmHg 78%
    04:00 -5°C° 0 mm 3 mps 584 mmHg 78%
    05:00 -5°C° 0 mm 3 mps 585 mmHg 78%
    06:00 -6°C° 0 mm 3 mps 585 mmHg 78%
    07:00 -5°C° 0 mm 3 mps 585 mmHg 75%
    08:00 -4°C° 0 mm 3 mps 585 mmHg 71%
    09:00 -4°C° 0 mm 3 mps 586 mmHg 68%
    10:00 -2°C° 0.1 mm 3 mps 585 mmHg 68%
    11:00 -1°C° 0.1 mm 3 mps 585 mmHg 68%
    12:00 -1°C° 0.1 mm 3 mps 585 mmHg 68%
    13:00 -1°C° 0.7 mm 3 mps 585 mmHg 70%
    14:00 -1°C° 0.7 mm 3 mps 584 mmHg 73%
    15:00 -1°C° 0.7 mm 3 mps 584 mmHg 75%
    16:00 -1°C° 0.6 mm 3 mps 584 mmHg 76%
    17:00 -2°C° 0.6 mm 3 mps 584 mmHg 77%
    18:00 -2°C° 0.6 mm 3 mps 584 mmHg 77%
    19:00 -2°C° 0.4 mm 3 mps 583 mmHg 77%
    20:00 -2°C° 0.4 mm 3 mps 583 mmHg 78%
    21:00 -2°C° 0.4 mm 3 mps 583 mmHg 78%
    22:00 -2°C° 0.3 mm 3 mps 583 mmHg 78%
    23:00 -2°C° 0.3 mm 3 mps 583 mmHg 79%

    Tomorrow, 13 December, Thursday

    Time Temperature Precipitation Wind Pressure Humidity
    00:00 -2°C° 0.3 mm 3 mps 583 mmHg 79%
    01:00 -4°C° 0.1 mm 3 mps 583 mmHg 80%
    02:00 -4°C° 0.1 mm 3 mps 583 mmHg 80%
    03:00 -5°C° 0.1 mm 3 mps 583 mmHg 81%
    04:00 -5°C° 0 mm 3 mps 583 mmHg 81%
    05:00 -6°C° 0 mm 3 mps 583 mmHg 81%
    06:00 -7°C° 0 mm 3 mps 583 mmHg 81%
    07:00 -6°C° 0.1 mm 3 mps 583 mmHg 79%
    08:00 -6°C° 0.1 mm 3 mps 584 mmHg 78%
    09:00 -5°C° 0.1 mm 2 mps 585 mmHg 76%
    10:00 -5°C° 0.2 mm 3 mps 585 mmHg 76%
    11:00 -5°C° 0.2 mm 3 mps 585 mmHg 77%
    12:00 -4°C° 0.2 mm 3 mps 586 mmHg 77%
    13:00 -4°C° 0.3 mm 3 mps 586 mmHg 78%
    14:00 -5°C° 0.3 mm 3 mps 586 mmHg 79%
    15:00 -5°C° 0.3 mm 3 mps 586 mmHg 81%
    16:00 -5°C° 0.2 mm 2 mps 586 mmHg 83%
    17:00 -5°C° 0.2 mm 2 mps 587 mmHg 85%
    18:00 -6°C° 0.2 mm 2 mps 587 mmHg 87%
    19:00 -7°C° 0 mm 2 mps 587 mmHg 85%
    20:00 -8°C° 0 mm 2 mps 587 mmHg 83%
    21:00 -8°C° 0 mm 2 mps 587 mmHg 81%
    22:00 -9°C° 0 mm 2 mps 587 mmHg 77%
    23:00 -9°C° 0 mm 2 mps 587 mmHg 74%

    Day after tomorrow, 14 December, Friday

    Time Temperature Precipitation Wind Pressure Humidity
    00:00 -10°C° 0 mm 2 mps 587 mmHg 70%
    01:00 -10°C° 0 mm 2 mps 587 mmHg 69%
    02:00 -10°C° 0 mm 2 mps 587 mmHg 68%
    03:00 -10°C° 0 mm 2 mps 588 mmHg 67%
    04:00 -12°C° 0 mm 2 mps 588 mmHg 67%
    05:00 -12°C° 0 mm 2 mps 588 mmHg 67%
    06:00 -12°C° 0 mm 2 mps 588 mmHg 67%
    07:00 -10°C° 0 mm 2 mps 588 mmHg 66%
    08:00 -9°C° 0 mm 2 mps 589 mmHg 65%
    09:00 -9°C° 0 mm 2 mps 590 mmHg 64%
    10:00 -8°C° 0 mm 2 mps 590 mmHg 62%
    11:00 -7°C° 0 mm 2 mps 590 mmHg 61%
    12:00 -6°C° 0 mm 2 mps 591 mmHg 60%
    13:00 -6°C° 0 mm 2 mps 590 mmHg 61%
    14:00 -6°C° 0 mm 2 mps 590 mmHg 62%
    15:00 -7°C° 0 mm 2 mps 590 mmHg 63%
    16:00 -7°C° 0 mm 1 mps 590 mmHg 65%
    17:00 -8°C° 0 mm 1 mps 590 mmHg 67%
    18:00 -9°C° 0 mm 1 mps 589 mmHg 69%
    19:00 -9°C° 0 mm 1 mps 589 mmHg 70%
    20:00 -9°C° 0 mm 1 mps 589 mmHg 70%
    21:00 -9°C° 0 mm 1 mps 590 mmHg 70%
    22:00 -10°C° 0 mm 2 mps 589 mmHg 70%
    23:00 -12°C° 0 mm 2 mps 589 mmHg 71%

    15 December, Saturday

    Time Temperature Precipitation Wind Pressure Humidity
    00:00 -12°C° 0 mm 2 mps 589 mmHg 71%
    01:00 -12°C° 0 mm 2 mps 589 mmHg 70%
    02:00 -13°C° 0 mm 2 mps 589 mmHg 70%
    03:00 -13°C° 0 mm 2 mps 589 mmHg 70%
    04:00 -13°C° 0 mm 2 mps 589 mmHg 68%
    05:00 -14°C° 0 mm 2 mps 589 mmHg 66%
    06:00 -14°C° 0 mm 2 mps 589 mmHg 64%
    07:00 -13°C° 0 mm 2 mps 590 mmHg 61%
    08:00 -10°C° 0 mm 1 mps 590 mmHg 59%
    09:00 -9°C° 0 mm 1 mps 591 mmHg 56%
    10:00 -7°C° 0 mm 1 mps 591 mmHg 53%
    11:00 -6°C° 0 mm 1 mps 592 mmHg 49%
    12:00 -4°C° 0 mm 1 mps 592 mmHg 46%
    13:00 -4°C° 0 mm 1 mps 592 mmHg 48%
    14:00 -4°C° 0 mm 1 mps 592 mmHg 50%
    15:00 -6°C° 0 mm 1 mps 592 mmHg 52%
    16:00 -7°C° 0 mm 1 mps 591 mmHg 52%
    17:00 -8°C° 0 mm 1 mps 591 mmHg 52%
    18:00 -10°C° 0 mm 2 mps 591 mmHg 51%
    19:00 -10°C° 0 mm 2 mps 591 mmHg 49%
    20:00 -10°C° 0 mm 2 mps 591 mmHg 46%
    21:00 -10°C° 0 mm 2 mps 591 mmHg 44%
    22:00 -10°C° 0 mm 2 mps 591 mmHg 45%
    23:00 -10°C° 0 mm 2 mps 591 mmHg 45%

    16 December, Sunday

    Time Temperature Precipitation Wind Pressure Humidity
    00:00 -10°C° 0 mm 2 mps 591 mmHg 45%
    01:00 -10°C° 0 mm 2 mps 591 mmHg 46%
    02:00 -10°C° 0 mm 2 mps 591 mmHg 47%
    03:00 -9°C° 0 mm 2 mps 591 mmHg 48%
    04:00 -9°C° 0 mm 2 mps 591 mmHg 49%
    05:00 -9°C° 0 mm 2 mps 591 mmHg 49%
    06:00 -9°C° 0 mm 2 mps 591 mmHg 49%
    07:00 -8°C° 0 mm 2 mps 592 mmHg 50%
    08:00 -7°C° 0 mm 2 mps 592 mmHg 50%
    09:00 -6°C° 0 mm 2 mps 593 mmHg 50%
    10:00 -5°C° 0 mm 2 mps 593 mmHg 50%
    11:00 -3°C° 0 mm 2 mps 593 mmHg 49%
    12:00 -2°C° 0 mm 2 mps 594 mmHg 49%
    13:00 -3°C° 0 mm 2 mps 593 mmHg 51%
    14:00 -3°C° 0 mm 2 mps 593 mmHg 54%
    15:00 -1°C° 0 mm 1 mps 593 mmHg 57%
    16:00 -5°C° 0 mm 2 mps 592 mmHg 55%
    17:00 -6°C° 0 mm 2 mps 592 mmHg 53%
    18:00 -7°C° 0 mm 2 mps 591 mmHg 51%
    19:00 -7°C° 0 mm 2 mps 591 mmHg 51%
    20:00 -7°C° 0 mm 2 mps 591 mmHg 51%
    21:00 -7°C° 0 mm 2 mps 591 mmHg 51%
    22:00 -7°C° 0 mm 2 mps 591 mmHg 52%
    23:00 -7°C° 0 mm 2 mps 591 mmHg 54%

    17 December, Monday

    Time Temperature Precipitation Wind Pressure Humidity
    00:00 -7°C° 0 mm 2 mps 590 mmHg 56%
    01:00 -7°C° 0 mm 2 mps 590 mmHg 57%
    02:00 -7°C° 0 mm 2 mps 590 mmHg 58%
    03:00 -7°C° 0 mm 2 mps 590 mmHg 59%
    04:00 -7°C° 0 mm 2 mps 590 mmHg 60%
    05:00 -7°C° 0 mm 2 mps 590 mmHg 61%
    06:00 -7°C° 0 mm 2 mps 590 mmHg 62%
    07:00 -4°C° 0 mm 1 mps 590 mmHg 62%
    08:00 -4°C° 0 mm 1 mps 591 mmHg 62%
    09:00 -3°C° 0 mm 1 mps 591 mmHg 63%
    10:00 -2°C° 0 mm 1 mps 591 mmHg 61%
    11:00 -1°C° 0 mm 1 mps 591 mmHg 60%
    12:00 0°C° 0 mm 1 mps 592 mmHg 59%
    13:00 0°C° 0 mm 1 mps 591 mmHg 62%
    14:00 -1°C° 0 mm 1 mps 591 mmHg 65%
    15:00 -1°C° 0 mm 1 mps 591 mmHg 68%
    16:00 -2°C° 0 mm 1 mps 590 mmHg 68%
    17:00 -4°C° 0 mm 1 mps 590 mmHg 69%
    18:00 -7°C° 0 mm 2 mps 590 mmHg 69%
    19:00 -7°C° 0 mm 2 mps 590 mmHg 67%
    20:00 -7°C° 0 mm 2 mps 590 mmHg 64%
    21:00 -7°C° 0 mm 2 mps 590 mmHg 62%
    22:00 -7°C° 0 mm 2 mps 590 mmHg 62%
    23:00 -7°C° 0 mm 2 mps 590 mmHg 61%
    Show more